Location: Ahstedt
(52.2048°N, 10.1060°E)
Time: 23:28:23
(UTC+00:00)

Lacrosse 4 Rocket - Pass Details

Date: 18 January 2026
Orbit: 513 x 564 km, 68.0° (Epoch: 7 February)

Event Time Altitude Azimuth Distance (km) Brightness Sun altitude
Rises 06:35:12 0° 243° (WSW) 2,649 4.4 -6.7°
Reaches altitude 10° 06:37:33 10° 253° (WSW) 1,757 3.5 -6.3°
Maximum altitude 06:41:05 31° 318° (NW) 920 2.0 -5.8°
Drops below altitude 10° 06:44:36 10° 22° (NNE) 1,751 3.9 -5.4°
Sets 06:46:57 0° 33° (NNE) 2,639 4.9 -5.0°
